Starlink 36227

operational
NORAD ID: 67095 Int'l Des: 2025-298 Owner: SPXS Country: US Constellation: starlink
LEOCIRCULAR

Starlink 36227について

説明を読み込み中...

リアルタイム位置

3D地球を読み込み中...

次回通過

高度履歴

Altitude vs Time

uPlot chart will show altitude changes over time

軌道要素

1 67095C 25298W 25349.42895833 -.00431950 00000+0 -63624-3 0 3494
2 67095 70.0015 242.9931 0006416 271.9398 225.0797 16.05172079 19
Epoch: Dec 15, 2025 • Age: 97 hours

現在のステータス

高度 279.8 km
速度 7.74 km/s
衛星直下点 53.97°N, 81.24°W
打ち上げ日 Dec 14, 2025
運用期間 4 days
タイプ internet

技術仕様

分類 Payload
質量 575.00 kg
乾燥質量 530.00 kg
総質量 575.00 kg
長さ 0.30 m
直径 4.10 m
スパン 29.00 m
形状 Box + pan
製造者 SPXS
バスタイプ Starlink V2MO
フェーズステータス In Orbit
所有者/国 SPXS/US

大規模コンステレーション

Loading constellations...